map of BKO home
BKO - Airport
Location
City:  Bamako, Bamako, Mali
Name:Modibo Keita International Airport
Old (Alt.):Bamako SÚnou International Airport
ICAO:GABS
IATA:BKO

Details
Type:Airport (Aerodrome, Airfield)
Use:Public/Civil, Military, International (customs port of entry)
Latitude:12░32'01"N (12.533544)
Longitude:7░57'00"W (-7.949943)
Datum:WGS 1984
Elevation:1247 ft (380 m)
Variation:3.87░W (WMM2015v2 magnetic declination)
0.14░ annual change
Runways:1
Longest:8879 × 148 ft (2706 × 45 m), paved

Time
Time Zone:UTC+0
Local Time:

Weather
METAR:GABS 041400Z VRB06KT CAVOK 34/M01 Q1014 NOSIG
TAF:GABS 041100Z 0412/0518 04008G20KT CAVOK PROB40
TEMPO 0420/0424 4000 DU PROB40
TEMPO 0506/0518 4000 DU

Related Locations
Nearby:
Farthest:MTV: 12146 mi / 19547 km
Ablow [Mota Lava], Mota Lava Island, TOB, VU

Find:

   beyond  
but within

Other Information
Maps:
NOTAMs:
Links:
Sources:

  
  • flag of Mali
  

Sectional Chart

Flight Planning
at skyvector.com

Satellite Image

Google Maps Satellite view

 

Copyright © 2004-2019 Karl L. Swartz. All rights reserved.
The Great Circle Mapper name and logo are trademarks of the Great Circle Mapper.
All other trademarks mentioned herein belong to their respective owners.
Please see credits for attibutions and further copyright information.

  Follow gcmap on Facebook Follow gcmap on Twitter GCmap on LinkedIn

hCard Microformat

Geo Microformat